Location: Unnamed
(47.6264°N, 122.3366°W)
Time: 12:28:10
(UTC-07:00)

UPPER FREE FLYER - Pass Details

Date: 08 August 2020
Orbit: 571 x 589 km, 97.7° (Epoch: 01 October)

Event Time Altitude Azimuth Distance (km) Brightness Sun altitude
Exits shadow 23:46:41 24° 248° (WSW) 1,198 ? -23.7°
Maximum altitude 23:47:25 26° 266° (W) 1,157 ? -23.7°
Drops below altitude 10° 23:50:52 10° 323° (NW) 1,894 ? -24.0°
Sets 23:53:20 0° 336° (NNW) 2,801 ? -24.1°
